Home   Weather   Costa Mesa   Past weeks

Flag for USA Past Weather in Costa Mesa, California, USA — Yesterday and Last 2 Weeks

Now
82 °F

Sunny.


Feels Like: 80 °F
Forecast: 62 / 80 °F
Wind: 22 mph from Northeast

Location: John Wayne Airport-Orange County Airport

Current Time: Apr 29, 2017 at 12:22:04 pm

Latest Report: Apr 29, 2017 at 10:53 am


Visibility: 10 mi

Pressure: 29.98 "Hg

Humidity: 9%

Dew Point: 17 °F

Location of Costa MesaLocation

Past Weather in Costa Mesa — Graph

°F

Costa Mesa Temperature Yesterday

Maximum temperature yesterday: 76 °F (at 3:53 pm)
Minimum temperature yesterday: 59 °F (at 5:53 am)
Average temperature yesterday: 68 °F

High & Low Weather Summary for the Past Weeks

 TemperatureHumidityPressure
High84 °F (Apr 22, 1:53 pm)97% (Apr 18, 11:07 pm)30.14 "Hg (Apr 18, 11:07 pm)
Low52 °F (Apr 15, 5:53 am)8% (Apr 29, 9:53 am)29.72 "Hg (Apr 28, 4:53 pm)
Average66 °F66%29.93 "Hg
* Reported Apr 14 10:53 am — Apr 29 10:53 am, Costa Mesa, Weather by CustomWeather, © 2017

Note: Actual official high and low records may vary slightly from our data, if they occured in-between our weather recording intervals... More about our weather records

Advertising

Costa Mesa Weather History for the Previous 24 Hours

Scroll right to see more
 ConditionsComfort  
Time TempWeatherWind HumidityBarometerVisibility
10:53 am
Sat, Apr 29
82 °FSunny.22 mph9%29.98 "Hg10 mi
9:53 am78 °FSunny.18 mph8%29.98 "Hg10 mi
8:53 am75 °FSunny.14 mph10%29.98 "Hg10 mi
7:53 am72 °FSunny.17 mph12%29.96 "Hg10 mi
6:53 am70 °FSunny.16 mph11%29.94 "Hg10 mi
5:53 am70 °FClear.16 mph11%29.91 "Hg10 mi
4:53 am71 °FClear.17 mph10%29.90 "Hg10 mi
3:53 am71 °FClear.17 mph11%29.88 "Hg10 mi
2:53 am73 °FClear.20 mph10%29.87 "Hg10 mi
1:53 am74 °FClear.17 mph9%29.85 "Hg10 mi
12:53 am75 °FClear.14 mph9%29.84 "Hg10 mi
11:53 pm
Fri, Apr 28
69 °FClear.No wind36%29.82 "Hg10 mi
10:53 pm70 °FClear.No wind35%29.79 "Hg10 mi
9:53 pm70 °FPassing clouds.No wind41%29.78 "Hg9 mi
8:53 pm69 °FPassing clouds.8 mph41%29.76 "Hg10 mi
7:53 pm71 °FPassing clouds.6 mph41%29.74 "Hg10 mi
6:53 pm73 °FPartly sunny.9 mph41%29.72 "Hg10 mi
5:53 pm75 °FPartly sunny.8 mph40%29.72 "Hg10 mi
4:53 pm75 °FHigh level clouds.8 mph33%29.72 "Hg10 mi
3:53 pm76 °FOvercast.8 mph35%29.72 "Hg9 mi
2:53 pm75 °FOvercast.9 mph39%29.74 "Hg9 mi
1:53 pm75 °FPartly sunny.12 mph40%29.77 "Hg9 mi
12:53 pm73 °FPartly sunny.15 mph57%29.78 "Hg9 mi
Weather by CustomWeather, © 2017

See weather overviewHow to use our weather pages